Weather History for Augusta, ME

Change the Weather History Date:

Monday, November 25, 2013

  Actual Average Record
Temperature  
Mean Temperature 20 °F -  
Max Temperature 27 °F 40 °F 59 °F (1999)
Min Temperature 14 °F 26 °F -2 °F (2000)
Degree Days  
Heating Degree Days 45    
Moisture  
Dew Point -1 °F    
Average Humidity 41    
Maximum Humidity 52    
Minimum Humidity 31    
Precipitation  
Precipitation 0.00 in - - ()
Sea Level Pressure  
Sea Level Pressure 30.21 in    
Wind  
Wind Speed 14 mph (West)    
Max Wind Speed 22 mph    
Max Gust Speed 32 mph    
Visibility 10 miles    
Events      
Averages and records for this station are not official NWS values.
T = Trace of Precipitation, MM = Missing Value Source: NWS Daily Summary

Daily Weather History Graph

Daily Weather History Graph

Search for Another Location

Airport:

Trip Planner

Search our weather history database for the weather conditions in past years. The results will help you decide how hot, cold, wet, or windy it might be!

Date:

Astronomy

Nov. 25, 2013 Rise Set
Actual Time 6:48 AM EST 4:04 PM EST
Civil Twilight 6:15 AM EST 4:36 PM EST
Nautical Twilight 5:40 AM EST 5:12 PM EST
Astronomical Twilight 5:05 AM EST 5:46 PM EST
Moon 11:34 PM EST (11/25) 11:54 AM EST (11/25)
Length of Visible Light 10h 20m
Length of Day
9h 16m
Waning Gibbous, 51% of the Moon is Illuminated
Nov 25
Waning Gibbous
Nov 25
Last Quarter
Dec 2
New
Dec 9
First Quarter
Dec 17
Full

Hourly Weather History & Observations

Time (EST) Temp. Windchill Dew Point Humidity Pressure Visibility Wind Dir Wind Speed Gust Speed Precip Events Conditions
12:53 AM 16.0 °F -0.9 °F -0.0 °F 49% 30.01 in 10.0 mi West 19.6 mph 29.9 mph N/A   Clear
1:53 AM 15.1 °F -1.1 °F -0.0 °F 51% 30.04 in 10.0 mi WNW 17.3 mph 27.6 mph N/A   Clear
2:53 AM 15.1 °F -0.1 °F -0.9 °F 49% 30.06 in 10.0 mi WNW 15.0 mph 32.2 mph N/A   Clear
3:53 AM 14.0 °F -4.3 °F -0.9 °F 52% 30.09 in 10.0 mi WNW 21.9 mph 27.6 mph N/A   Clear
4:53 AM 14.0 °F -0.2 °F -0.9 °F 52% 30.12 in 10.0 mi WNW 12.7 mph 23.0 mph N/A   Clear
5:53 AM 14.0 °F -2.0 °F -2.0 °F 49% 30.13 in 10.0 mi WNW 16.1 mph 28.8 mph N/A   Clear
6:53 AM 14.0 °F -3.0 °F -2.9 °F 47% 30.18 in 10.0 mi WNW 18.4 mph 28.8 mph N/A   Clear
7:53 AM 15.1 °F 1.1 °F -2.9 °F 45% 30.22 in 10.0 mi WNW 12.7 mph 20.7 mph N/A   Clear
8:53 AM 17.1 °F 3.6 °F -2.0 °F 43% 30.23 in 10.0 mi West 12.7 mph 23.0 mph N/A   Clear
9:53 AM 18.0 °F 5.4 °F -2.0 °F 41% 30.24 in 10.0 mi West 11.5 mph 18.4 mph N/A   Clear
10:53 AM 21.0 °F 8.6 °F -2.0 °F 36% 30.24 in 10.0 mi WNW 12.7 mph 21.9 mph N/A   Clear
11:53 AM 24.1 °F 14.4 °F -2.9 °F 31% 30.25 in 10.0 mi WNW 9.2 mph 19.6 mph N/A   Clear
12:53 PM 25.0 °F 12.2 °F -2.0 °F 31% 30.25 in 10.0 mi West 16.1 mph 25.3 mph N/A   Clear
1:53 PM 26.1 °F 15.0 °F -0.9 °F 31% 30.25 in 10.0 mi WNW 12.7 mph - N/A   Clear
2:53 PM 24.1 °F 16.0 °F -2.0 °F 32% 30.26 in 10.0 mi NW 6.9 mph - N/A   Clear
3:53 PM 24.1 °F 14.4 °F -0.9 °F 34% 30.27 in 10.0 mi West 9.2 mph - N/A   Clear
4:53 PM 23.0 °F 18.4 °F -0.9 °F 35% 30.28 in 10.0 mi SSW 3.5 mph - N/A   Clear
5:53 PM 21.9 °F 14.5 °F -0.9 °F 37% 30.28 in 10.0 mi SSW 5.8 mph - N/A   Clear
6:53 PM 19.9 °F 13.4 °F -0.0 °F 42% 30.28 in 10.0 mi SSW 4.6 mph - N/A   Clear
7:53 PM 21.0 °F 12.4 °F -0.0 °F 40% 30.29 in 10.0 mi SSW 6.9 mph - N/A   Clear
8:53 PM 23.0 °F 17.0 °F 1.0 °F 39% 30.27 in 10.0 mi SSW 4.6 mph - N/A   Partly Cloudy
9:53 PM 24.1 °F 17.0 °F 1.9 °F 38% 30.25 in 10.0 mi South 5.8 mph - N/A   Overcast
10:53 PM 25.0 °F 19.3 °F 3.9 °F 41% 30.25 in 10.0 mi SSW 4.6 mph - N/A   Overcast
11:53 PM 27.0 °F 23.0 °F 7.0 °F 43% 30.24 in 10.0 mi SSW 3.5 mph - N/A   Overcast